Tracking 23731 objects as of 26-Sep-2021
HD Live streaming from Space Station
objects crossing your sky now

STARLINK-2564

Track STARLINK-2564 now!
10-day predictions
STARLINK-2564 is classified as:


NORAD ID: 48284
Int'l Code: 2021-036J
Perigee: 552.9 km
Apogee: 555.8 km
Inclination: 53.0 °
Period: 95.6 minutes
Semi major axis: 6925 km
RCS: Unknown
Launch date: April 29, 2021
Source: United States (US)
Launch site: AIR FORCE EASTERN TEST RANGE (AFETR)
aabbcc
Your satellite tracking list
Your tracking list is empty




NASA's NSSDC Master Catalog

Two Line Element Set (TLE):
1 48284U 21036J   21268.49848061 -.00001533  00000-0 -84033-4 0  9993
2 48284  53.0497 181.8911 0002145  61.0459 299.0745 15.06396260 23203
Source of the keplerian elements: AFSPC